CW5020 Weather Reports


Display with metric or nautical units.
time (UTC)temp
F
wind
direction
speed
MPH
gust
MPH
rain 1hr
in
rain 24hr
in
rain mn
in
humidity
%
barometer
mb
20240226042504 46 202 0.0 0.0 0.00 0.00 0.00 62 1009.1
20240226042006 46 202 0.0 0.0 0.00 0.00 0.00 62 1009.1
20240226041504 46 202 0.0 0.0 0.00 0.00 0.00 62 1009.1
20240226041005 46 202 0.0 0.0 0.00 0.00 0.00 63 1009.2
20240226040503 46 202 0.0 0.0 0.00 0.00 0.00 62 1009.2
20240226040008 46 202 0.0 0.0 0.00 0.00 0.00 62 1009.2
20240226035505 46 202 0.0 0.0 0.00 0.00 0.00 62 1009.1
20240226035006 46 202 0.0 0.0 0.00 0.00 0.00 61 1009.1
20240226034505 46 202 0.0 0.0 0.00 0.00 0.00 61 1009.1
20240226033504 46 202 0.0 0.0 0.00 0.00 0.00 60 1009.1
20240226032504 47 202 0.0 0.0 0.00 0.00 0.00 60 1009.0
20240226032007 47 202 0.0 0.0 0.00 0.00 0.00 61 1009.0
20240226031504 47 202 0.0 0.0 0.00 0.00 0.00 61 1009.0
20240226031005 47 202 0.0 0.0 0.00 0.00 0.00 60 1009.0
20240226030504 47 202 0.0 0.0 0.00 0.00 0.00 59 1008.8
20240226030007 47 202 0.0 0.0 0.00 0.00 0.00 60 1008.7
20240226025506 47 202 0.0 0.0 0.00 0.00 0.00 59 1008.8
20240226025005 48 202 0.0 0.0 0.00 0.00 0.00 59 1008.6
20240226024503 48 202 0.0 0.0 0.00 0.00 0.00 58 1008.6
20240226023505 48 202 0.0 0.0 0.00 0.00 0.00 58 1008.5
20240226023005 48 202 0.0 0.0 0.00 0.00 0.00 58 1008.4
20240226022504 48 202 0.0 0.0 0.00 0.00 0.00 58 1008.4
20240226022006 49 202 0.0 0.0 0.00 0.00 0.00 58 1008.4
20240226021007 49 202 0.0 0.0 0.00 0.00 0.00 57 1008.3
20240226020505 49 202 0.0 0.0 0.00 0.00 0.00 57 1008.3
20240226015503 49 202 0.0 0.0 0.00 0.00 0.00 57 1008.0
20240226014503 50 202 0.0 0.0 0.00 0.00 0.00 57 1008.0
20240226014004 50 202 0.0 0.0 0.00 0.00 0.00 57 1008.0
20240226012504 50 202 0.0 0.0 0.00 0.00 0.00 55 1008.0
20240226012007 50 202 0.0 0.0 0.00 0.00 0.00 55 1007.9
20240226011504 51 202 0.0 0.0 0.00 0.00 0.00 56 1007.8
20240226010503 51 202 0.0 0.0 0.00 0.00 0.00 54 1007.7
20240226010007 51 202 0.0 0.0 0.00 0.00 0.00 54 1007.7
20240226005503 52 202 0.0 0.0 0.00 0.00 0.00 53 1007.7
20240226005005 52 202 0.0 0.0 0.00 0.00 0.00 54 1007.9
20240226004503 52 202 0.0 0.0 0.00 0.00 0.00 53 1007.7
20240226004005 52 202 0.0 0.0 0.00 0.00 0.00 53 1007.7
20240226003503 53 202 0.0 0.0 0.00 0.00 0.00 52 1007.7
20240226003006 53 202 0.0 0.0 0.00 0.00 0.00 52 1007.6
20240226002504 54 202 0.0 0.0 0.00 0.00 0.00 50 1008.0
20240226002005 54 202 0.0 0.0 0.00 0.00 0.00 50 1007.5
20240226001503 54 202 0.0 0.0 0.00 0.00 0.00 50 1007.5
20240226001005 54 202 0.0 0.0 0.00 0.00 0.00 50 1007.2
20240226000503 54 202 0.0 0.0 0.00 0.00 0.00 50 1007.2
20240226000008 55 202 0.0 1.0 0.00 0.00 0.00 49 1007.0
20240225235504 55 202 0.0 1.0 0.00 0.00 0.00 49 1007.0
20240225235005 55 202 0.0 3.0 0.00 0.00 0.00 49 1006.9
20240225234504 55 202 0.0 3.0 0.00 0.00 0.00 49 1006.8
20240225233007 56 202 0.0 3.0 0.00 0.00 0.00 46 1006.7
20240225232503 56 205 0.0 1.0 0.00 0.00 0.00 46 1006.6
20240225232005 56 205 0.0 1.0 0.00 0.00 0.00 45 1006.4
20240225231004 57 207 0.0 5.0 0.00 0.00 0.00 44 1006.4
20240225230503 57 188 1.0 3.0 0.00 0.00 0.00 44 1006.1
20240225230007 58 182 1.0 3.0 0.00 0.00 0.00 43 1006.2
20240225225503 58 202 0.0 2.0 0.00 0.00 0.00 44 1006.2
20240225224504 58 203 1.0 4.0 0.00 0.00 0.00 43 1006.1
20240225223503 59 206 1.0 5.0 0.00 0.00 0.00 43 1006.0
20240225223006 59 207 1.0 5.0 0.00 0.00 0.00 42 1006.0
20240225222504 59 207 1.0 5.0 0.00 0.00 0.00 41 1006.0
20240225222005 59 188 1.0 5.0 0.00 0.00 0.00 42 1006.0
20240225221503 59 183 1.0 5.0 0.00 0.00 0.00 41 1006.0
20240225221005 59 173 1.0 5.0 0.00 0.00 0.00 41 1006.0
20240225220008 60 205 1.0 4.0 0.00 0.00 0.00 41 1005.8
20240225215503 60 208 1.0 4.0 0.00 0.00 0.00 41 1005.8
20240225215005 60 193 2.0 8.0 0.00 0.00 0.00 40 1005.9
20240225214503 60 178 1.0 8.0 0.00 0.00 0.00 42 1005.8
20240225214005 60 247 1.0 4.0 0.00 0.00 0.00 42 1005.8
20240225213503 59 169 1.0 4.0 0.00 0.00 0.00 41 1005.9
20240225213008 60 187 2.0 5.0 0.00 0.00 0.00 42 1005.9
20240225212504 60 175 2.0 6.0 0.00 0.00 0.00 42 1005.9
20240225212005 60 170 2.0 6.0 0.00 0.00 0.00 40 1005.9
20240225211504 60 175 2.0 7.0 0.00 0.00 0.00 41 1005.8
20240225211005 61 244 2.0 7.0 0.00 0.00 0.00 39 1005.8
20240225210503 61 186 2.0 7.0 0.00 0.00 0.00 41 1005.8
20240225210003 62 240 2.0 6.0 0.00 0.00 0.00 40 1005.8
20240225205006 62 269 2.0 6.0 0.00 0.00 0.00 40 1005.9
20240225204005 61 243 2.0 7.0 0.00 0.00 0.00 40 1005.9
20240225203502 61 176 2.0 7.0 0.00 0.00 0.00 42 1005.9
20240225203008 61 230 2.0 7.0 0.00 0.00 0.00 42 1005.8
20240225202502 61 157 2.0 9.0 0.00 0.00 0.00 40 1005.8
20240225202005 60 249 2.0 8.0 0.00 0.00 0.00 42 1005.7
20240225201505 60 174 2.0 5.0 0.00 0.00 0.00 44 1005.8
20240225201006 60 163 2.0 5.0 0.00 0.00 0.00 43 1005.7
20240225200008 59 190 2.0 7.0 0.00 0.00 0.00 44 1006.0
20240225195503 59 277 2.0 7.0 0.00 0.00 0.00 44 1006.1
20240225195007 59 254 2.0 6.0 0.00 0.00 0.00 45 1006.0
20240225194501 58 170 2.0 7.0 0.00 0.00 0.00 45 1006.0
20240225194004 58 232 2.0 8.0 0.00 0.00 0.00 44 1006.0
20240225193505 58 182 2.0 8.0 0.00 0.00 0.00 45 1005.9
20240225193007 58 178 2.0 6.0 0.00 0.00 0.00 46 1006.1
20240225192502 57 221 2.0 8.0 0.00 0.00 0.00 45 1006.1
20240225192008 57 225 2.0 8.0 0.00 0.00 0.00 46 1006.1
20240225191502 57 171 2.0 7.0 0.00 0.00 0.00 47 1006.4
20240225191004 57 246 2.0 7.0 0.00 0.00 0.00 47 1006.4
20240225190004 56 257 1.0 6.0 0.00 0.01 0.00 49 1006.5
20240225185007 56 218 2.0 6.0 0.00 0.01 0.00 48 1006.6
20240225184506 55 222 2.0 7.0 0.00 0.01 0.00 48 1006.7
20240225184007 55 198 3.0 7.0 0.00 0.01 0.00 51 1006.7
20240225183505 54 157 3.0 8.0 0.00 0.01 0.00 48 1006.9
20240225183005 54 181 3.0 8.0 0.00 0.01 0.00 50 1006.9
20240225182502 53 238 2.0 7.0 0.00 0.01 0.00 51 1007.0
20240225182003 53 200 2.0 7.0 0.00 0.01 0.00 51 1006.9
20240225181503 53 175 3.0 8.0 0.00 0.01 0.00 52 1007.0
20240225181007 53 176 2.0 7.0 0.00 0.01 0.00 54 1007.1
20240225180505 52 190 2.0 9.0 0.00 0.01 0.00 55 1007.1
20240225180010 52 209 3.0 10.0 0.00 0.01 0.00 54 1007.1
20240225175506 51 178 2.0 10.0 0.00 0.01 0.00 55 1007.3
20240225175008 51 169 2.0 6.0 0.00 0.01 0.00 55 1007.4
20240225174008 49 176 2.0 7.0 0.00 0.01 0.00 59 1007.5
20240225173008 49 217 2.0 8.0 0.00 0.01 0.00 58 1007.5
20240225172506 49 193 3.0 8.0 0.00 0.01 0.00 59 1007.5
20240225172007 48 215 3.0 8.0 0.00 0.01 0.00 59 1007.5
20240225171505 48 296 3.0 9.0 0.00 0.01 0.00 60 1007.7
20240225171008 47 254 3.0 7.0 0.00 0.01 0.00 62 1007.6
20240225170504 46 209 3.0 8.0 0.00 0.01 0.00 62 1007.8
20240225170008 46 257 3.0 8.0 0.00 0.01 0.00 61 1007.8
20240225165503 47 179 3.0 10.0 0.00 0.01 0.00 61 1007.8
20240225164506 45 201 3.0 10.0 0.00 0.01 0.00 63 1007.9
20240225164006 44 190 3.0 8.0 0.00 0.01 0.00 64 1007.8
20240225163503 45 196 3.0 8.0 0.00 0.01 0.00 63 1007.8
20240225163006 44 186 3.0 8.0 0.00 0.01 0.00 64 1007.8
20240225162506 44 175 3.0 11.0 0.00 0.01 0.00 64 1008.0
20240225162008 44 147 3.0 11.0 0.00 0.01 0.00 64 1008.1
20240225161011 43 235 4.0 11.0 0.00 0.01 0.00 64 1008.1
20240225160007 42 195 3.0 12.0 0.00 0.01 0.00 65 1008.0
20240225155502 42 226 3.0 10.0 0.00 0.01 0.00 66 1008.1
20240225155007 42 186 3.0 11.0 0.00 0.01 0.00 66 1008.0
20240225154503 41 205 3.0 11.0 0.00 0.01 0.00 65 1007.9
20240225154007 41 184 3.0 10.0 0.00 0.01 0.00 64 1008.0
20240225153008 40 219 3.0 8.0 0.00 0.01 0.00 67 1008.2
20240225152506 40 217 4.0 10.0 0.00 0.01 0.00 67 1008.1
20240225152006 39 198 4.0 10.0 0.00 0.01 0.00 67 1008.1
20240225151505 39 270 3.0 9.0 0.00 0.01 0.00 68 1008.1
20240225151006 38 251 3.0 8.0 0.00 0.01 0.00 69 1008.1
20240225150505 38 179 3.0 9.0 0.00 0.01 0.00 70 1008.2
20240225150008 37 187 3.0 10.0 0.00 0.01 0.00 70 1008.1
20240225145501 37 166 3.0 10.0 0.00 0.01 0.00 69 1008.1
20240225145004 37 202 3.0 10.0 0.00 0.01 0.00 69 1008.1
20240225144503 37 211 3.0 7.0 0.00 0.01 0.00 70 1008.2
20240225144004 37 170 3.0 9.0 0.00 0.01 0.00 70 1008.1
20240225143506 37 202 3.0 9.0 0.00 0.01 0.00 71 1008.0
20240225143007 36 166 3.0 10.0 0.00 0.01 0.00 72 1008.2
20240225142505 35 161 2.0 10.0 0.00 0.01 0.00 72 1008.2
20240225142006 35 223 2.0 8.0 0.00 0.01 0.00 73 1008.1
20240225141505 34 183 3.0 11.0 0.00 0.01 0.00 73 1008.1
20240225141007 34 250 3.0 11.0 0.00 0.01 0.00 74 1008.1
20240225140505 34 171 2.0 7.0 0.00 0.01 0.00 74 1008.1
20240225140009 33 208 2.0 5.0 0.00 0.01 0.00 75 1008.1
20240225135505 33 190 2.0 6.0 0.00 0.01 0.00 75 1008.0
20240225135007 32 210 2.0 6.0 0.00 0.01 0.00 75 1008.0
20240225134503 32 229 2.0 7.0 0.00 0.01 0.00 75 1008.1
20240225134008 32 196 3.0 7.0 0.00 0.01 0.00 75 1008.0
20240225133505 32 219 3.0 7.0 0.00 0.01 0.00 75 1007.9
20240225133006 32 193 2.0 8.0 0.00 0.01 0.00 75 1008.1
20240225132007 32 175 3.0 8.0 0.00 0.01 0.00 75 1008.1
20240225131502 32 180 3.0 12.0 0.00 0.01 0.00 75 1008.1
20240225131008 31 212 3.0 12.0 0.00 0.01 0.00 75 1008.1
20240225130505 31 196 3.0 8.0 0.00 0.01 0.00 75 1007.7
20240225130008 31 186 3.0 9.0 0.00 0.01 0.00 75 1007.9
20240225125502 31 139 3.0 9.0 0.00 0.01 0.00 74 1007.9
20240225125005 31 160 3.0 7.0 0.00 0.01 0.00 74 1007.9
20240225124503 31 200 3.0 10.0 0.00 0.01 0.00 74 1007.9
20240225124005 31 171 3.0 10.0 0.00 0.01 0.00 74 1008.0
20240225123504 31 208 3.0 11.0 0.00 0.01 0.00 74 1008.0
20240225123004 31 147 3.0 11.0 0.00 0.01 0.00 74 1008.0
20240225122502 31 170 2.0 6.0 0.00 0.01 0.00 74 1008.1
20240225122007 31 186 3.0 8.0 0.00 0.01 0.00 73 1008.2
20240225121503 31 165 3.0 8.0 0.00 0.01 0.00 73 1008.1
20240225121003 31 154 2.0 9.0 0.00 0.01 0.00 73 1008.1
20240225120502 31 183 3.0 9.0 0.00 0.01 0.00 73 1008.0
20240225120010 31 163 2.0 6.0 0.00 0.01 0.00 73 1007.9
20240225115505 31 184 2.0 7.0 0.00 0.01 0.00 73 1008.1
20240225115003 31 135 3.0 7.0 0.00 0.01 0.00 73 1008.3
20240225114503 30 173 2.0 7.0 0.00 0.01 0.00 73 1008.2
20240225114003 30 188 2.0 7.0 0.00 0.01 0.00 73 1008.3
20240225113505 30 156 2.0 5.0 0.00 0.01 0.00 73 1008.2
20240225113004 30 159 2.0 6.0 0.00 0.01 0.00 72 1008.3
20240225112502 30 181 2.0 7.0 0.00 0.01 0.00 72 1008.4
20240225112003 30 174 2.0 9.0 0.00 0.01 0.00 72 1008.4
20240225111502 30 202 2.0 9.0 0.00 0.01 0.00 72 1008.6
20240225111005 30 208 2.0 7.0 0.00 0.01 0.00 72 1008.6
20240225110502 30 192 2.0 7.0 0.00 0.01 0.00 72 1008.7
20240225110005 30 157 2.0 6.0 0.00 0.01 0.00 72 1008.7
20240225105502 30 178 2.0 5.0 0.00 0.01 0.00 71 1008.8
20240225105004 30 191 2.0 5.0 0.00 0.01 0.00 71 1008.9
20240225104502 30 209 2.0 5.0 0.00 0.01 0.00 71 1008.9
20240225104004 30 196 2.0 7.0 0.00 0.01 0.00 71 1008.9
20240225103502 30 142 2.0 7.0 0.00 0.01 0.00 71 1008.9
20240225103005 30 180 2.0 6.0 0.00 0.01 0.00 71 1008.9
20240225102502 30 155 2.0 6.0 0.00 0.01 0.00 71 1008.8
20240225102004 30 176 2.0 6.0 0.00 0.01 0.00 71 1008.6
20240225101504 30 214 2.0 5.0 0.00 0.01 0.00 71 1008.6
20240225101004 30 152 2.0 7.0 0.00 0.01 0.00 71 1008.8
20240225100506 30 173 2.0 7.0 0.00 0.01 0.00 71 1008.8
20240225100007 30 155 2.0 5.0 0.00 0.01 0.00 71 1008.9
20240225095502 30 171 2.0 5.0 0.00 0.01 0.00 71 1009.0
20240225095007 30 149 2.0 6.0 0.00 0.01 0.00 71 1009.0
20240225094502 30 182 2.0 6.0 0.00 0.01 0.00 71 1009.2
20240225094003 30 190 2.0 6.0 0.00 0.01 0.00 71 1009.2
20240225093506 30 172 2.0 5.0 0.00 0.01 0.00 71 1009.2
20240225093006 29 183 2.0 5.0 0.00 0.01 0.00 71 1009.3
20240225092502 29 175 2.0 7.0 0.00 0.01 0.00 71 1009.4
20240225091502 29 177 1.0 4.0 0.00 0.01 0.00 71 1009.6
20240225091003 29 198 1.0 4.0 0.00 0.01 0.00 71 1009.7
20240225090503 29 186 2.0 7.0 0.00 0.01 0.00 71 1009.9
20240225090006 29 149 2.0 7.0 0.00 0.01 0.00 71 1009.9
20240225085502 29 168 2.0 7.0 0.00 0.01 0.00 72 1010.1
20240225085003 29 224 2.0 7.0 0.00 0.01 0.00 72 1010.1
20240225084502 29 180 2.0 6.0 0.00 0.01 0.00 72 1010.3
20240225084006 29 158 2.0 7.0 0.00 0.01 0.00 72 1010.3
20240225083505 29 200 2.0 5.0 0.00 0.01 0.00 72 1010.3
20240225083006 29 178 2.0 5.0 0.00 0.01 0.00 72 1010.5
20240225082506 29 184 2.0 4.0 0.00 0.01 0.00 72 1010.7
20240225081506 29 174 1.0 6.0 0.00 0.01 0.00 72 1010.9
20240225080007 29 222 2.0 8.0 0.00 0.01 0.00 72 1011.2
20240225075505 29 169 2.0 8.0 0.00 0.01 0.00 72 1011.3
20240225075002 29 196 1.0 5.0 0.00 0.01 0.00 73 1011.4
20240225074501 29 178 2.0 7.0 0.00 0.01 0.00 72 1011.4
20240225074003 29 195 1.0 7.0 0.00 0.01 0.00 72 1011.6
20240225073501 29 184 1.0 5.0 0.00 0.01 0.00 72 1011.7
20240225072501 29 192 2.0 6.0 0.00 0.01 0.00 72 1011.8
20240225072003 29 186 2.0 5.0 0.00 0.01 0.00 72 1011.9
20240225071501 29 180 2.0 7.0 0.00 0.01 0.00 72 1012.0
20240225071005 29 175 1.0 8.0 0.00 0.01 0.00 72 1012.1
20240225070501 29 223 1.0 8.0 0.00 0.01 0.00 72 1012.0
20240225065006 29 180 2.0 5.0 0.00 0.01 0.00 71 1012.0
20240225064506 29 184 1.0 6.0 0.00 0.01 0.00 71 1012.0
20240225064008 29 155 2.0 7.0 0.00 0.01 0.00 71 1012.2
20240225063507 29 168 1.0 5.0 0.00 0.01 0.00 71 1012.2
20240225062505 30 220 1.0 5.0 0.00 0.01 0.00 70 1012.3
20240225062009 30 186 1.0 3.0 0.00 0.01 0.00 70 1012.3
20240225061504 30 212 1.0 4.0 0.00 0.01 0.00 70 1012.4
20240225061005 30 163 2.0 6.0 0.00 0.01 0.00 70 1012.5
20240225060507 30 164 2.0 6.0 0.00 0.01 0.00 70 1012.5
20240225060012 30 234 1.0 5.0 0.00 0.01 0.00 70 1012.7
20240225055006 30 192 2.0 4.0 0.00 0.01 0.01 70 1012.7
20240225054504 30 192 2.0 6.0 0.00 0.01 0.01 70 1012.9
20240225054007 30 186 2.0 7.0 0.00 0.01 0.01 70 1013.0
20240225053504 30 208 2.0 5.0 0.00 0.01 0.01 70 1012.9
20240225053007 30 165 1.0 7.0 0.00 0.01 0.01 70 1013.0
20240225052503 30 161 1.0 7.0 0.00 0.01 0.01 70 1013.0
20240225051504 30 169 1.0 6.0 0.00 0.01 0.01 70 1013.1
20240225051005 30 207 1.0 6.0 0.00 0.01 0.01 70 1013.2
20240225050504 30 172 1.0 7.0 0.00 0.01 0.01 70 1013.2
20240225050007 30 165 2.0 7.0 0.00 0.01 0.01 70 1013.3
20240225045503 30 206 2.0 9.0 0.00 0.01 0.01 70 1013.4
20240225045006 30 192 2.0 9.0 0.00 0.01 0.01 70 1013.5
20240225044504 30 184 1.0 6.0 0.00 0.01 0.01 70 1013.6
20240225044005 30 167 1.0 6.0 0.00 0.01 0.01 70 1013.6
20240225043504 30 195 2.0 6.0 0.00 0.01 0.01 70 1013.7